DW3212 Weather Reports


time (UTC)temp
C
wind
direction
speed
KPH
gust
KPH
rain 1hr
cm
rain 24hr
cm
rain mn
cm
humidity
%
barometer
mb
20260906083102 11 0.0 0.0 0.00 0.10 0.05 96 1014.8
20260906081603 11 0.0 0.0 0.03 0.10 0.05 96 1014.7
20260906080103 11 0.0 0.0 0.03 0.10 0.05 96 1014.6
20260906074607 11 0.0 0.0 0.03 0.10 0.05 96 1014.8
20260906073105 11 0.0 0.0 0.03 0.10 0.05 95 1014.7
20260906071610 11 0.0 0.0 0.00 0.08 0.03 95 1014.7
20260906070107 11 0.0 0.0 0.00 0.08 0.03 95 1014.6
20260906064609 11 0.0 0.0 0.00 0.08 0.03 95 1014.7
20260906063101 11 0.0 0.0 0.00 0.08 0.03 95 1014.7
20260906061607 11 0.0 0.0 0.00 0.08 0.03 95 1014.9
20260906060106 11 0.0 0.0 0.00 0.08 0.03 95 1015.0
20260906054603 12 0.0 0.0 0.00 0.08 0.03 95 1015.0
20260906053100 12 0.0 0.0 0.00 0.08 0.03 95 1015.0
20260906051600 12 0.0 0.0 0.03 0.08 0.03 94 1014.9
20260906050105 12 0.0 0.0 0.03 0.08 0.03 95 1015.0
20260906044603 12 0.0 0.0 0.03 0.08 0.03 94 1015.0
20260906043059 12 0.0 0.0 0.03 0.08 0.03 94 1015.2
20260906041600 12 0.0 0.0 0.05 0.05 0.00 94 1015.2
20260906040104 12 0.0 0.0 0.05 0.05 0.00 94 1015.0
20260906034557 12 0.0 0.0 0.05 0.05 0.05 94 1015.0
20260906033106 13 0.0 0.0 0.05 0.05 0.05 94 1014.8
20260906031604 13 0.0 0.0 0.00 0.00 0.00 93 1014.7
20260906030101 14 0.0 0.0 0.00 0.00 0.00 93 1014.5
20260906024601 14 0.0 0.0 0.00 0.00 0.00 92 1014.3
20260906023103 14 0.0 0.0 0.00 0.00 0.00 92 1014.4
20260906021603 14 0.0 0.0 0.00 0.00 0.00 92 1014.4
20260906020100 13 0.0 0.0 0.00 0.00 0.00 93 1014.3
20260906014616 13 0.0 0.0 0.00 0.00 0.00 93 1014.1
20260906013107 13 0.0 0.0 0.00 0.00 0.00 92 1014.1
20260906011618 13 0.0 0.0 0.00 0.00 0.00 92 1014.3
20260906004619 13 0.0 0.0 0.00 0.00 0.00 91 1014.2
20260906003103 13 0.0 0.0 0.00 0.00 0.00 90 1014.1
20260906001603 14 0.0 0.0 0.00 0.00 0.00 90 1014.0
20260906000105 14 0.0 0.0 0.00 0.00 0.00 89 1014.1
20260905234606 15 0.0 0.0 0.00 0.00 0.00 89 1013.8
20260905233130 15 0.0 0.0 0.00 0.00 0.00 88 1013.7
20260905231559 15 0.0 0.0 0.00 0.00 0.00 86 1013.5
20260905230104 16 0.0 0.0 0.00 0.00 0.00 86 1013.5
20260905224622 16 0.0 0.0 0.00 0.00 0.00 85 1013.4
20260905223106 16 0.0 0.0 0.00 0.00 0.00 84 1013.3
20260905221604 16 0.0 0.0 0.00 0.00 0.00 84 1013.3
20260905220106 17 0.0 0.0 0.00 0.00 0.00 82 1013.2
20260905214605 17 0.0 0.0 0.00 0.00 0.00 82 1013.2
20260905213105 17 0.0 0.0 0.00 0.00 0.00 82 1013.1
20260905211603 17 0.0 0.0 0.00 0.00 0.00 82 1013.0
20260905204559 17 0.0 0.0 0.00 0.00 0.00 81 1012.9
20260905203107 17 0.0 0.0 0.00 0.00 0.00 84 1012.8
20260905201611 18 0.0 0.0 0.00 0.00 0.00 78 1012.7
20260905200110 18 0.0 0.0 0.00 0.00 0.00 79 1012.4
20260905194605 17 0.0 0.0 0.00 0.00 0.00 84 1012.5
20260905193116 17 0.0 0.0 0.00 0.00 0.00 84 1012.6
20260905191610 17 0.0 0.0 0.00 0.00 0.00 83 1012.6
20260905190134 18 0.0 0.0 0.00 0.00 0.00 75 1012.5
20260905184622 18 0.0 0.0 0.00 0.00 0.00 72 1012.5
20260905183103 18 0.0 0.0 0.00 0.00 0.00 76 1012.4
20260905181603 18 0.0 0.0 0.00 0.00 0.00 77 1012.5
20260905174605 19 0.0 0.0 0.00 0.00 0.00 71 1012.4
20260905173104 18 0.0 0.0 0.00 0.00 0.00 75 1012.5
20260905171602 18 0.0 0.0 0.00 0.00 0.00 74 1012.3
20260905170118 18 0.0 0.0 0.00 0.00 0.00 77 1012.5
20260905164604 17 0.0 0.0 0.00 0.00 0.00 77 1012.4
20260905163106 18 0.0 0.0 0.00 0.00 0.00 75 1012.4
20260905161601 18 0.0 0.0 0.00 0.00 0.00 72 1012.4
20260905160059 18 0.0 0.0 0.00 0.00 0.00 72 1012.4
20260905154609 19 0.0 0.0 0.00 0.00 0.00 70 1012.5
20260905153104 18 0.0 0.0 0.00 0.00 0.00 74 1012.6
20260905151604 18 0.0 0.0 0.00 0.00 0.00 76 1012.5
20260905150057 18 0.0 0.0 0.00 0.00 0.00 77 1012.5
20260905144601 16 0.0 0.0 0.00 0.00 0.00 81 1012.6
20260905143104 17 0.0 0.0 0.00 0.00 0.00 76 1012.6
20260905141628 18 0.0 0.0 0.00 0.00 0.00 77 1012.5
20260905140100 17 0.0 0.0 0.00 0.00 0.00 78 1012.6
20260905134602 16 0.0 0.0 0.00 0.00 0.00 84 1012.5
20260905133101 16 0.0 0.0 0.00 0.00 0.00 83 1012.7
20260905131631 16 0.0 0.0 0.00 0.00 0.00 85 1012.6
20260905130116 16 0.0 0.0 0.00 0.00 0.00 82 1012.6
20260905124603 16 0.0 0.0 0.00 0.00 0.00 81 1012.4
20260905123110 15 0.0 0.0 0.00 0.00 0.00 85 1012.3
20260905121603 16 0.0 0.0 0.00 0.00 0.00 84 1012.2
20260905114557 16 0.0 0.0 0.00 0.00 0.00 82 1011.9
20260905113117 15 0.0 0.0 0.00 0.00 0.00 85 1011.6
20260905111602 14 0.0 0.0 0.00 0.00 0.00 88 1011.6
20260905110101 13 0.0 0.0 0.00 0.00 0.00 91 1011.7
20260905104602 12 0.0 0.0 0.00 0.00 0.00 94 1011.6
20260905103102 12 0.0 0.0 0.00 0.00 0.00 93 1011.5
20260905101632 12 0.0 0.0 0.00 0.00 0.00 93 1011.4
20260905100108 12 0.0 0.0 0.00 0.00 0.00 93 1011.4
20260905094600 12 0.0 0.0 0.00 0.00 0.00 93 1011.3
20260905093104 12 0.0 0.0 0.00 0.00 0.00 93 1011.3
20260905091624 12 0.0 0.0 0.00 0.00 0.00 91 1011.3
20260905090104 13 0.0 0.0 0.00 0.00 0.00 89 1011.2
20260905084617 13 0.0 0.0 0.00 0.00 0.00 90 1011.1